Wind_Speed
43 43 41 38 33 31 29 27 25 26 27 27 26 25 26 26 26 24 22 20 20 18 16 14 13 12 12 11 10 16 21 23 24 24 25 20 14 14 14 12 12 12 11 12 12 13 16 18 17 18 19 18 17 17 17 17 16 15 14 13 12 11 10 9 9 11 11 11 10 10 10 10 9 10 10 11 11 11 11 11 11 12 12 13 13 13
44 44 41 36 33 32 31 29 29 29 28 27 27 26 26 25 26 27 26 25 24 21 17 14 14 12 11 8 8 16 23 24 25 24 24 22 17 16 15 13 12 11 11 11 11 11 13 16 17 16 18 18 18 18 17 17 17 16 15 13 13 12 10 9 9 9 10 10 9 9 9 9 10 10 10 10 11 11 11 11 11 11 12 12 13 12
44 42 38 37 37 35 33 32 31 31 30 29 29 29 27 25 26 28 28 28 26 24 19 15 14 13 10 8 6 15 25 26 26 26 26 24 19 17 16 14 12 11 11 11 10 11 12 14 15 16 16 17 17 16 16 16 17 16 16 15 13 13 12 11 10 9 9 9 9 10 9 9 9 10 10 10 10 10 10 11 10 10 11 11 11 11
41 39 38 39 39 38 36 35 33 33 31 31 31 31 29 26 24 25 27 27 26 24 19 15 15 13 11 10 8 12 22 27 27 27 28 25 20 18 17 16 14 13 12 12 11 11 11 12 13 14 15 16 16 16 15 16 16 17 17 16 15 14 14 13 12 11 10 9 9 10 10 9 9 9 10 10 10 10 10 10 10 9 9 10 10 10
37 37 39 40 40 39 38 37 36 34 33 32 32 31 29 25 24 24 26 28 26 22 19 16 15 14 11 11 10 10 18 26 28 28 29 26 22 20 19 17 16 16 15 14 12 11 12 12 12 12 13 15 16 16 16 16 16 17 17 16 16 15 15 14 13 12 11 10 9 9 9 10 10 9 10 10 10 10 10 10 10 10 9 9 9 9
37 38 41 42 43 43 41 39 38 36 34 34 33 29 26 25 25 26 28 29 25 19 19 18 15 14 14 12 11 11 13 22 28 29 29 26 22 21 20 18 18 17 17 16 14 13 13 12 11 12 12 14 15 15 15 15 15 15 15 15 16 15 15 14 13 11 11 10 9 8 9 9 10 10 10 11 10 10 10 9 9 9 9 8 8 9
38 39 41 42 44 45 44 42 40 38 36 36 33 28 25 24 25 25 26 26 22 19 20 20 16 15 15 14 12 11 12 19 27 30 30 28 24 23 21 19 18 17 17 16 14 13 13 12 11 12 12 12 14 14 14 14 13 14 14 14 15 15 15 14 13 12 10 10 10 9 10 10 11 11 10 10 10 10 10 9 9 9 8 8 8 9
39 40 41 42 44 45 44 43 41 40 39 36 32 28 25 24 24 23 20 20 21 21 19 17 16 15 15 15 12 10 10 18 28 31 31 29 26 24 22 20 19 18 18 17 16 14 14 13 13 12 12 12 12 13 14 14 14 14 14 15 15 15 15 14 13 12 11 10 10 9 9 10 11 11 10 10 10 9 9 9 9 9 8 8 8 9
40 41 41 41 43 44 42 40 41 41 38 34 31 30 27 24 24 24 21 19 21 22 17 13 15 15 14 14 13 10 8 14 25 31 31 28 26 25 23 21 19 18 17 17 17 17 16 15 14 13 12 12 12 13 13 13 12 13 14 15 15 15 15 14 14 13 12 11 10 9 9 9 10 11 11 10 9 9 9 8 8 8 8 8 9 9
42 42 42 42 42 41 39 40 41 40 35 33 33 32 29 27 27 27 25 22 22 22 18 14 15 15 13 13 13 12 9 10 18 26 30 28 27 26 23 21 20 18 17 17 16 17 18 17 16 14 12 12 12 12 12 11 11 11 12 14 15 15 15 14 14 14 13 12 11 10 9 9 9 10 10 10 9 9 9 9 8 8 8 8 9 10
43 43 44 44 42 38 37 41 42 38 35 36 37 35 33 32 32 32 30 27 26 25 20 17 17 17 16 14 13 12 11 11 12 18 28 31 28 27 25 23 22 20 19 19 18 17 18 18 17 15 13 12 12 11 11 11 11 11 12 12 13 14 14 14 14 14 13 13 12 10 9 8 9 9 10 10 10 10 9 9 9 9 8 9 10 11
42 43 45 44 42 39 37 41 42 38 38 40 40 38 38 37 36 36 34 33 31 25 21 21 20 20 19 16 14 14 13 12 11 12 20 30 31 27 25 25 24 22 21 20 19 19 17 16 16 15 13 12 11 10 11 11 11 12 12 11 11 13 14 14 13 13 13 13 13 11 9 8 8 9 10 10 11 11 10 10 9 9 9 10 10 11
41 43 44 43 43 41 39 40 42 41 42 44 43 42 41 40 40 39 37 34 29 23 23 24 22 22 22 19 19 18 15 13 13 11 13 23 31 28 25 27 26 24 23 22 21 20 18 16 15 15 14 12 11 10 11 11 11 11 11 11 11 12 13 15 15 14 13 14 14 13 11 9 8 8 9 10 11 11 11 10 10 10 10 10 10 11
40 41 42 43 44 43 42 41 42 44 45 45 45 45 44 44 43 41 38 33 27 24 25 27 25 23 23 23 22 20 18 15 15 14 12 16 25 29 28 29 29 26 26 25 24 23 21 19 18 17 15 14 13 12 11 11 11 11 11 11 11 11 12 14 15 15 14 14 14 14 13 11 9 8 8 9 11 12 12 11 11 11 10 10 11 11
39 39 40 41 43 44 43 41 41 44 45 45 46 46 45 45 43 40 38 30 25 26 27 28 29 26 24 24 23 21 20 19 16 15 15 13 19 26 29 29 30 30 30 30 28 25 24 22 20 18 16 15 14 12 12 12 11 11 11 12 13 13 13 14 16 17 16 15 15 14 14 13 12 10 9 9 10 12 13 13 12 12 11 10 11 11
40 39 39 39 41 42 42 41 42 45 45 45 47 46 45 45 42 39 37 29 23 24 27 28 29 26 24 24 25 24 22 20 18 16 17 15 16 21 24 27 30 31 32 32 29 26 24 22 20 16 14 14 13 13 13 13 12 12 12 13 14 14 14 15 16 17 18 17 16 15 15 15 14 12 11 10 11 12 13 14 13 13 12 11 11 11
39 39 39 38 39 40 42 41 43 45 47 48 48 47 44 42 40 39 38 33 28 26 27 28 28 27 27 26 27 27 24 22 20 18 18 20 19 20 22 25 29 30 31 31 29 26 23 20 18 16 14 14 14 14 14 14 15 15 15 15 15 15 15 15 16 17 18 18 17 17 17 16 16 15 14 13 12 12 13 14 14 14 14 13 11 11
37 37 39 38 37 39 42 42 43 45 48 49 49 48 45 40 39 40 38 38 37 34 30 27 27 29 29 27 26 26 25 22 21 19 19 21 22 23 22 22 23 24 26 28 29 28 24 20 19 19 18 17 17 17 17 18 18 18 17 16 15 15 15 16 17 16 17 17 17 18 18 18 18 18 17 15 13 13 13 14 14 15 14 13 12 12
36 35 37 37 37 39 42 44 45 46 49 50 50 50 47 41 39 39 40 41 41 41 36 29 27 30 31 28 26 25 24 22 20 18 18 18 19 20 18 15 16 17 18 22 26 28 27 24 23 23 21 19 18 20 21 21 22 21 20 19 17 17 17 16 16 15 15 15 16 17 18 19 20 19 18 16 14 13 13 13 13 14 13 13 12 12
36 35 36 36 37 39 42 44 46 47 48 50 51 51 48 44 39 36 39 42 41 41 41 36 30 30 31 31 27 25 24 21 19 17 15 15 16 16 14 11 12 14 14 15 19 24 27 28 27 26 24 22 21 22 23 23 23 22 22 21 20 19 18 15 13 12 12 13 14 15 17 18 19 19 18 17 15 13 12 11 12 12 13 13 13 12
36 35 35 36 37 38 40 43 46 47 47 49 52 52 49 46 41 36 36 41 42 41 42 42 36 31 30 30 28 26 24 21 17 16 15 16 16 15 13 12 12 13 13 14 15 18 24 28 28 26 26 25 23 23 24 24 23 22 22 21 21 20 18 15 14 13 14 15 16 16 16 17 18 19 19 17 16 13 11 11 12 12 13 13 14 14
36 35 36 36 36 38 40 42 44 45 45 46 50 52 50 47 43 39 37 40 45 43 42 43 40 35 31 29 27 26 25 22 19 17 17 18 18 16 15 15 15 14 14 14 14 16 20 24 26 26 26 27 25 24 25 26 23 21 20 20 21 21 20 18 17 19 21 20 19 18 17 17 18 19 19 19 18 16 14 13 13 13 13 14 14 14
35 34 35 35 36 37 38 41 43 43 45 46 48 51 52 49 46 43 40 40 44 46 45 43 40 39 38 35 31 28 26 24 22 20 20 19 19 18 17 18 18 16 15 16 16 18 20 21 23 23 25 26 25 24 25 25 23 22 20 20 20 21 22 21 22 24 26 24 22 20 19 19 18 18 19 20 20 19 16 15 14 14 14 15 15 15
35 33 33 34 35 34 34 38 41 42 44 46 47 50 51 50 49 48 45 42 42 45 48 46 43 42 43 41 38 35 32 29 27 25 24 23 21 20 20 20 19 18 18 17 18 20 20 20 21 21 22 23 24 23 22 21 22 23 23 21 20 22 24 25 26 27 28 27 25 23 22 21 19 17 18 20 21 20 18 15 14 15 15 15 16 16
32 32 33 34 35 35 33 35 39 42 44 45 47 49 50 50 50 51 49 46 42 43 47 48 46 44 42 41 40 40 39 37 35 32 30 28 25 23 23 22 20 19 19 17 18 20 20 20 19 19 20 21 21 20 18 16 18 22 24 23 22 21 22 24 28 30 28 29 28 25 23 22 21 20 19 19 19 20 19 18 16 16 16 16 16 17
31 30 32 35 37 38 36 36 40 44 45 46 46 48 49 50 50 51 50 48 45 44 46 48 47 44 42 41 40 40 41 41 40 38 36 34 31 28 26 25 23 21 20 19 19 20 21 20 19 19 20 21 20 17 15 15 17 20 23 24 22 20 20 21 25 27 27 28 29 28 25 23 23 23 21 19 19 20 21 21 19 18 17 17 16 16
33 32 33 37 39 40 40 40 42 44 46 46 46 47 49 51 51 51 50 49 47 45 45 46 45 43 42 40 38 38 39 40 39 39 38 37 35 32 30 29 27 25 24 23 22 22 23 22 22 22 22 22 21 19 18 16 18 20 20 19 19 19 20 19 18 20 23 26 29 29 27 26 26 25 24 22 20 20 21 22 22 20 18 18 17 16
34 35 36 38 40 42 42 42 43 44 45 46 45 46 48 50 52 52 51 50 48 46 44 44 44 42 40 39 37 36 36 36 36 36 36 36 36 34 32 30 28 27 27 27 26 25 25 24 24 24 23 23 22 21 20 18 19 19 17 17 18 19 18 17 15 16 20 25 30 30 29 28 27 26 24 23 22 21 21 22 23 22 20 19 18 17
33 35 37 39 40 42 43 43 43 43 45 45 44 44 47 50 52 53 53 52 51 49 46 44 43 41 39 38 37 35 34 33 33 33 34 35 35 33 29 26 24 24 25 27 27 27 27 26 26 25 23 23 22 20 20 20 21 19 17 17 19 18 16 16 16 15 16 20 26 30 29 27 26 26 25 24 24 23 23 23 24 24 23 21 20 19
36 35 36 38 40 42 44 44 44 44 44 45 44 45 47 50 52 53 54 54 53 51 49 46 43 41 40 39 37 35 35 34 34 34 35 34 32 31 29 25 23 23 23 25 26 27 27 27 27 26 25 24 23 22 21 21 20 19 18 18 19 18 17 15 15 14 13 14 19 24 27 26 25 26 25 24 25 26 25 26 26 25 25 24 23 21
40 38 36 35 39 42 43 45 45 45 45 46 46 46 48 50 52 53 53 53 52 51 50 49 46 42 41 40 39 37 36 35 34 34 34 33 31 30 29 27 25 24 24 25 25 26 27 28 28 28 27 26 26 25 24 22 21 21 21 20 20 21 20 18 17 16 15 15 14 16 21 23 23 23 24 23 24 26 26 27 27 27 27 26 25 23
41 41 38 34 36 39 41 41 40 41 44 46 45 47 49 51 54 54 52 52 51 49 48 48 47 44 42 41 40 39 37 34 34 33 33 31 31 31 30 28 26 26 26 27 27 27 28 29 29 29 29 28 27 27 26 24 23 23 23 22 22 22 20 18 17 17 16 15 14 12 14 17 19 21 23 23 24 25 26 27 28 27 27 27 26 25
41 43 42 38 35 37 39 39 35 35 38 41 43 45 47 49 53 54 53 52 51 50 49 47 47 45 44 43 41 40 39 35 33 32 32 32 33 33 32 30 28 26 26 27 28 29 30 30 30 31 30 29 29 28 28 27 26 25 24 23 23 23 21 20 19 18 16 15 14 13 12 13 15 18 20 22 23 24 26 27 27 26 26 26 26 26
42 43 44 42 38 37 40 42 40 38 39 40 41 43 44 46 49 50 50 50 50 51 50 49 48 47 46 45 43 42 41 38 34 32 33 35 36 35 34 33 30 27 24 24 26 29 30 30 31 32 32 31 30 29 29 28 28 27 25 24 24 23 24 23 21 19 18 17 16 15 15 14 14 14 16 19 20 21 23 25 25 25 25 26 26 27
42 43 44 44 41 38 41 45 46 44 42 42 43 43 44 47 48 48 47 46 47 48 48 48 48 48 47 47 45 43 42 41 39 36 36 37 36 34 34 34 34 32 28 25 25 27 29 30 31 32 33 33 32 31 30 29 29 28 25 24 24 23 24 25 23 20 20 19 18 17 17 17 15 13 14 15 16 18 20 23 25 26 26 27 28 29
40 42 42 43 43 40 41 46 47 45 44 44 44 44 45 47 48 47 45 44 45 46 46 46 47 47 47 47 47 46 43 41 39 37 37 37 36 35 36 35 34 34 33 30 28 27 28 30 32 33 34 34 34 33 32 31 31 29 26 25 24 23 23 25 24 22 21 21 21 20 19 18 17 16 16 15 15 16 17 19 23 25 27 28 29 29
33 39 41 41 42 41 40 42 43 43 43 44 43 43 44 46 46 47 46 46 46 46 46 47 47 48 48 47 46 46 44 42 40 37 36 36 34 34 34 34 32 32 31 30 29 28 28 31 33 34 35 35 35 35 34 33 33 31 29 28 27 26 25 26 26 26 25 26 26 24 23 21 21 20 20 19 19 19 18 18 19 20 21 24 28 28
24 31 36 39 41 41 41 40 39 38 40 41 41 41 43 43 44 45 46 47 47 48 48 48 47 46 46 45 45 45 45 45 43 40 38 37 36 34 33 32 32 32 31 30 30 29 29 30 32 33 35 35 36 36 35 35 35 33 31 31 30 29 30 30 29 28 28 28 28 27 25 25 24 24 24 23 22 22 21 20 19 19 19 20 23 26
19 22 27 32 36 39 40 41 41 40 39 38 39 38 39 40 40 40 42 43 45 46 48 49 47 46 45 44 44 45 46 46 45 44 43 42 40 40 40 39 37 37 37 36 35 33 31 31 31 32 33 35 36 37 36 36 36 35 34 34 33 32 32 32 31 29 28 28 29 29 29 28 28 27 27 26 26 25 24 22 21 21 22 21 22 22
17 19 22 24 28 33 36 37 38 41 41 41 40 38 37 37 37 35 37 38 39 41 43 46 48 48 47 46 45 45 45 45 44 43 44 46 46 45 45 44 42 41 41 40 38 36 34 33 33 33 33 34 35 36 37 37 37 36 36 35 35 35 35 35 35 33 32 32 32 32 32 31 30 29 28 28 28 28 27 25 24 24 24 24 24 23
16 17 19 21 23 25 28 31 33 36 38 40 42 42 41 39 38 37 37 37 37 37 39 41 43 46 47 47 45 44 44 46 49 49 48 48 48 47 44 42 40 39 40 41 41 40 38 36 35 35 35 35 35 36 37 38 38 38 37 37 37 37 37 37 37 36 35 35 35 35 34 33 32 31 30 30 30 29 28 28 27 27 26 25 25 26
14 16 18 20 22 23 25 27 29 31 34 35 37 38 39 39 39 39 39 39 39 40 41 41 42 44 45 44 44 44 44 42 43 48 50 48 45 43 43 43 42 39 39 41 43 42 41 40 38 38 38 37 38 38 38 39 39 39 39 39 39 39 39 39 38 38 38 38 37 37 37 36 35 34 33 33 32 31 31 30 30 29 29 27 27 27
11 13 16 18 20 22 24 26 27 29 31 33 35 36 37 38 39 39 39 39 40 41 42 43 44 45 45 45 44 45 46 41 34 34 41 45 45 43 43 44 45 43 41 42 45 46 45 44 43 42 42 41 41 41 41 41 41 41 41 41 41 41 41 41 41 41 40 40 39 39 38 38 37 37 37 36 35 34 33 32 31 31 30 30 30 29
11 12 15 17 19 21 23 26 27 29 30 32 33 35 36 38 39 39 40 41 42 42 43 44 45 46 47 48 47 47 50 50 44 35 33 36 40 42 42 43 45 44 42 42 44 45 45 46 46 46 45 45 45 45 45 45 44 44 43 43 43 43 43 43 43 43 43 42 42 41 40 40 40 40 39 38 37 36 35 34 33 33 32 32 32 31
11 13 15 17 18 20 22 24 26 28 30 32 33 34 35 36 38 39 40 42 43 44 45 45 47 48 48 49 50 50 51 52 51 47 41 37 36 37 39 41 43 44 45 46 45 45 45 46 46 46 46 47 47 48 48 48 48 47 46 46 46 46 45 45 45 45 45 44 44 43 43 42 42 42 41 40 39 38 37 36 36 35 35 34 34 33
13 14 16 18 19 21 23 24 26 28 29 31 32 34 35 36 37 38 40 41 42 44 45 46 47 48 49 50 51 52 51 49 51 53 55 54 49 44 42 41 41 42 45 48 50 50 49 49 49 48 48 48 48 48 49 49 49 49 48 48 48 48 48 48 48 47 47 47 46 45 45 44 44 43 43 43 42 41 40 39 39 38 37 36 36 35
16 17 18 19 20 21 23 25 26 27 29 30 31 32 33 35 37 38 39 41 42 43 44 45 46 48 50 51 51 52 49 44 41 46 54 60 58 53 51 49 46 44 44 46 47 48 48 49 50 50 49 49 49 49 49 50 50 50 50 49 49 49 49 49 49 49 49 48 48 47 47 47 46 46 45 45 44 44 43 42 41 40 40 39 38 37
19 19 20 21 21 22 24 25 26 28 29 30 31 31 32 33 35 37 39 40 41 43 43 44 45 47 49 49 49 49 49 43 34 31 39 49 53 52 52 53 52 50 49 48 48 47 47 48 49 50 50 50 50 51 51 51 51 51 51 51 50 50 50 49 49 49 49 49 49 49 48 48 48 47 47 47 46 46 45 45 44 43 42 41 40 40
23 22 23 23 23 24 26 27 29 30 31 31 32 32 33 33 33 35 37 39 40 42 43 44 45 47 49 50 48 49 51 51 45 38 36 39 42 44 46 50 52 52 51 51 51 50 49 49 49 50 51 51 51 52 52 52 52 52 51 51 51 51 51 51 50 50 50 50 50 49 49 49 49 48 48 48 47 47 47 46 46 45 45 44 43 42
26 26 26 26 26 26 26 28 30 31 32 33 33 34 34 34 33 34 35 37 39 41 42 43 44 45 47 49 50 50 51 53 54 52 47 43 41 41 43 46 49 51 52 52 51 50 50 50 50 51 51 52 52 53 53 53 53 53 53 53 53 52 52 52 52 52 51 51 51 51 50 50 50 49 49 49 48 48 48 47 47 46 46 46 45 44
27 28 28 29 28 28 28 29 30 31 33 34 35 35 36 36 36 36 36 36 38 40 41 42 43 44 45 46 48 49 50 51 51 51 49 46 44 43 44 45 47 49 51 51 51 50 50 51 52 52 52 53 53 54 54 54 55 54 54 54 54 54 54 54 53 53 53 53 53 52 52 52 51 51 51 50 50 49 49 48 48 48 47 47 46 46
Wind_Direction
209 210 212 211 209 208 206 204 201 199 204 205 202 203 205 204 206 209 210 212 216 219 220 218 216 215 215 233 240 212 202 198 196 193 189 188 183 178 185 189 179 173 168 159 160 164 167 174 180 177 171 169 173 175 172 169 167 166 164 161 160 158 155 152 149 147 144 144 144 140 133 132 135 137 138 138 135 131 127 124 123 124 124 122 121 120
209 210 211 210 207 206 205 203 204 204 206 207 206 208 211 212 212 213 215 217 217 217 220 218 216 216 214 230 233 205 198 194 193 195 193 192 188 179 184 194 186 175 170 160 156 157 161 171 181 184 175 172 178 178 174 173 171 169 169 167 164 161 157 154 152 148 146 146 142 136 136 141 144 144 145 144 140 138 135 134 132 132 130 128 128 128
209 209 207 206 205 205 205 204 206 207 207 209 211 211 212 215 218 220 221 224 223 219 219 220 216 216 216 222 223 202 197 193 192 194 194 194 191 181 182 192 184 173 173 166 161 158 157 167 180 187 183 178 181 181 176 174 173 173 173 172 168 165 162 160 158 152 148 148 145 142 146 150 148 146 149 148 144 144 143 141 140 138 135 133 133 132
208 205 202 204 205 204 204 205 207 209 208 212 215 215 214 215 219 224 225 228 229 223 218 219 219 217 214 215 213 200 198 196 194 194 193 193 191 183 184 189 180 173 179 173 168 164 155 163 176 184 187 183 183 183 180 178 177 177 176 174 173 171 169 167 165 158 152 151 152 155 157 158 156 153 154 155 151 150 149 147 145 143 142 139 136 133
205 202 202 202 202 202 203 205 209 210 209 213 218 219 217 215 219 223 225 227 228 224 220 219 222 217 209 212 215 203 198 200 197 195 196 195 192 186 186 190 182 176 180 176 172 169 161 166 173 175 184 188 188 186 184 184 182 180 179 176 178 178 174 173 171 165 158 157 160 167 168 165 164 163 160 161 160 155 152 152 149 147 149 145 140 136
201 201 202 201 200 200 200 203 208 210 209 213 217 218 217 216 218 219 222 226 222 219 223 223 222 220 210 206 214 212 203 203 202 198 198 198 197 191 186 189 187 181 182 178 173 172 166 167 172 172 178 187 191 190 189 191 186 183 183 180 182 184 180 177 176 170 163 160 161 165 172 172 169 168 166 167 167 161 157 156 152 150 152 151 148 145
199 201 203 202 202 202 199 199 205 208 209 213 215 216 215 214 216 217 220 225 220 214 221 222 218 221 215 204 209 218 213 206 203 199 198 198 199 196 189 186 188 186 185 180 174 170 163 164 173 176 177 182 186 188 191 195 191 186 187 187 188 190 187 182 179 174 167 164 165 164 169 175 174 172 170 169 169 166 164 164 159 156 156 153 152 153
198 201 202 202 204 204 201 198 201 207 209 211 214 214 213 212 216 219 219 219 218 216 220 222 218 219 216 206 205 215 220 212 204 199 197 197 197 197 192 185 185 189 189 182 175 170 165 167 177 179 177 178 179 181 187 193 192 192 192 192 194 195 193 189 184 179 173 170 173 171 168 174 178 177 174 170 168 168 171 170 167 163 159 154 153 154
197 200 200 201 204 206 204 199 201 206 207 208 213 215 212 210 215 222 220 216 220 218 214 218 219 220 219 213 210 214 221 214 205 200 199 198 197 198 193 184 183 189 193 189 180 174 170 170 179 182 177 176 177 177 182 187 189 193 196 196 198 199 197 194 190 185 180 177 178 176 171 173 179 182 180 175 169 168 171 174 173 169 163 159 157 155
197 199 198 200 202 204 204 201 202 204 202 204 212 213 209 207 210 217 217 216 224 220 206 203 210 211 211 210 209 212 218 214 204 202 202 200 198 198 196 187 183 188 194 196 190 182 175 172 177 180 175 176 178 175 176 179 183 191 196 198 199 201 200 198 196 192 187 184 183 180 176 175 177 181 184 181 175 172 174 176 176 174 172 168 164 160
199 199 198 200 199 198 200 202 203 201 198 201 208 209 205 205 207 211 211 212 219 218 202 192 195 198 199 200 202 202 211 217 210 207 207 204 199 198 198 191 186 190 194 195 195 193 185 176 175 175 175 177 177 173 174 178 181 188 194 196 199 203 203 201 199 196 193 192 190 187 182 180 179 180 184 185 181 179 180 181 179 177 179 178 172 168
200 200 200 201 197 193 196 201 201 197 195 200 204 205 205 205 208 209 209 210 214 212 201 192 193 195 192 191 193 193 200 209 210 211 209 204 201 199 198 193 190 194 196 195 196 197 194 185 175 175 178 180 176 173 176 181 185 189 192 194 197 201 202 203 202 198 197 197 196 193 189 188 187 183 185 186 185 186 186 186 184 182 183 184 181 175
201 202 201 200 196 191 192 199 199 194 195 199 202 204 205 206 208 208 208 210 210 204 196 194 194 192 188 188 194 195 193 194 201 207 200 198 199 200 199 197 197 199 197 197 197 197 198 194 183 181 184 184 182 180 179 185 189 189 191 194 198 200 199 201 203 200 199 200 200 199 195 194 195 192 189 188 189 192 191 190 190 189 187 187 187 183
202 204 202 200 197 192 192 196 197 193 195 199 202 206 207 207 209 208 208 210 207 200 195 195 196 191 188 194 197 197 196 193 195 200 199 196 196 199 201 200 203 206 201 199 200 197 197 197 192 187 187 188 190 187 182 188 193 188 188 194 197 199 197 197 202 202 201 202 203 203 200 199 200 200 198 195 194 194 195 195 197 197 192 191 193 191
200 203 204 203 199 194 193 195 195 193 195 199 203 208 210 211 212 210 211 211 207 205 202 200 201 193 189 197 197 195 200 200 196 194 197 197 190 194 199 202 206 210 206 203 202 200 197 197 196 192 188 191 195 191 185 189 195 190 185 191 194 195 194 195 199 202 203 203 204 204 203 201 202 203 205 205 202 199 197 198 201 202 200 198 199 198
199 201 203 204 202 196 193 195 194 191 192 197 203 208 210 213 213 213 214 211 207 210 209 208 206 193 189 199 200 198 200 199 197 192 193 194 186 185 192 199 205 208 207 206 206 205 202 197 198 198 192 191 194 198 195 192 197 197 192 192 195 196 194 194 198 202 205 205 204 204 204 203 202 204 207 211 211 206 202 200 202 204 205 205 205 204
198 199 200 201 202 198 192 194 194 191 191 196 202 206 209 212 213 213 215 212 208 209 209 210 207 194 192 201 202 201 201 199 199 194 191 195 193 190 191 198 205 207 208 209 208 207 206 203 202 201 197 194 194 200 204 201 200 202 201 199 199 199 198 197 199 202 206 207 206 205 205 203 202 204 207 211 214 213 208 203 202 206 208 210 209 209
192 196 198 198 198 196 191 192 194 192 192 196 201 205 208 209 211 214 216 215 212 211 210 208 204 199 200 204 204 205 204 203 203 200 196 197 200 201 202 203 205 206 209 211 208 204 202 204 206 205 201 197 195 200 207 210 207 206 205 206 206 206 206 205 205 206 209 211 210 209 208 204 203 204 207 209 212 214 214 208 205 207 211 213 214 215
188 191 196 195 193 192 190 190 192 193 193 195 200 205 207 208 210 214 217 218 217 216 214 210 205 205 206 207 206 207 208 208 210 210 206 204 205 207 209 209 208 211 212 212 209 202 197 200 205 207 204 200 201 205 209 213 213 210 209 209 212 215 216 216 213 213 218 221 220 218 214 211 207 205 207 208 211 214 216 215 211 210 213 215 218 221
186 188 191 191 190 192 192 191 192 194 194 196 199 205 208 208 208 212 217 220 221 221 220 217 211 209 210 211 209 208 210 212 214 216 213 212 213 213 213 211 213 218 218 213 207 199 198 202 204 205 204 203 208 213 216 218 218 217 215 213 216 219 223 226 225 224 228 233 234 230 223 219 214 210 208 208 212 218 221 222 220 216 215 217 220 222
185 187 185 185 188 191 193 193 193 194 195 197 199 202 206 208 206 208 213 219 222 224 225 224 219 213 212 212 212 212 213 213 210 208 207 209 212 214 215 213 213 216 216 215 210 201 202 207 208 208 206 205 209 216 220 223 222 222 221 220 222 225 228 231 228 225 227 229 232 234 230 224 218 214 211 208 211 217 221 222 222 219 217 218 220 222
184 187 183 182 186 189 193 195 195 194 195 198 200 202 204 206 206 207 210 217 221 223 227 229 227 223 220 217 215 214 215 214 210 208 208 208 207 211 216 214 211 212 212 214 214 209 208 210 212 213 211 210 213 218 222 225 225 225 226 223 223 225 229 231 225 223 224 222 222 227 229 227 221 216 212 208 209 212 215 217 218 217 216 216 218 220
184 187 184 183 187 190 195 198 196 196 196 198 200 203 205 206 208 209 211 216 221 223 226 230 231 229 228 226 223 220 219 218 216 217 218 217 213 215 221 219 212 210 212 212 211 212 213 211 212 215 212 210 214 219 223 227 226 227 230 229 224 222 224 226 225 226 227 224 221 223 225 226 223 218 213 210 210 211 212 214 215 216 216 216 215 217
184 186 184 185 189 191 195 199 198 197 198 199 201 203 205 208 211 213 215 217 220 224 227 229 232 232 231 231 230 228 227 227 225 225 225 224 222 221 223 222 216 211 213 214 212 213 213 212 215 219 216 210 211 217 224 227 226 228 234 236 233 227 225 224 225 228 230 228 224 223 223 224 224 222 217 212 211 211 213 215 215 216 217 217 215 214
185 186 187 189 190 190 193 197 197 198 200 200 201 203 204 207 211 214 217 218 219 223 227 229 231 233 233 233 233 232 232 233 232 232 231 228 228 227 224 222 219 214 214 216 215 215 217 215 215 217 218 217 215 216 222 223 224 228 232 234 236 235 235 235 230 227 229 230 227 224 224 224 225 225 222 216 212 211 213 215 217 216 216 219 219 216
187 185 189 194 195 194 196 198 197 198 200 200 200 202 204 207 210 213 217 219 219 221 225 228 229 231 233 233 233 232 234 235 236 236 235 233 235 235 228 222 220 218 217 220 220 219 221 219 214 214 219 223 220 215 216 215 216 224 230 234 238 240 243 244 235 227 228 230 228 225 225 225 225 225 223 219 214 212 213 215 218 218 215 216 220 221
190 185 188 196 199 198 198 201 201 199 200 202 201 201 204 207 210 213 215 218 220 221 223 226 227 229 230 230 230 231 232 234 236 237 237 237 237 236 228 223 224 224 224 227 228 226 225 222 218 217 220 223 220 212 212 215 216 223 230 234 238 239 241 242 235 228 229 228 225 224 224 224 225 224 222 219 216 214 215 217 219 221 219 217 218 221
194 189 188 195 201 200 198 201 203 201 201 204 204 203 204 207 211 214 215 217 219 220 222 224 226 228 229 228 228 229 230 232 233 234 235 234 233 231 228 226 228 228 227 229 230 231 231 229 228 225 221 223 223 216 215 220 222 223 224 229 235 239 240 237 231 227 229 227 225 223 222 222 224 223 222 222 220 218 219 220 220 222 223 221 219 219
202 199 194 192 196 202 201 201 204 205 205 206 205 205 206 208 211 215 216 217 219 220 222 224 225 226 227 228 228 227 229 229 230 230 229 228 228 227 225 222 221 221 221 222 226 229 232 234 236 235 228 224 224 221 219 224 227 225 223 228 234 233 230 229 229 230 232 231 228 224 219 218 222 222 222 224 224 222 222 222 221 221 223 224 223 221
206 211 208 196 194 201 203 201 202 205 209 208 206 206 207 210 213 215 218 219 220 221 223 223 224 225 227 228 227 226 226 227 227 226 226 225 226 224 221 218 216 216 216 217 221 225 229 233 235 236 232 226 223 223 223 225 228 229 231 235 238 236 234 234 235 240 240 236 234 227 219 217 219 220 220 223 224 224 224 224 223 222 222 224 226 225
207 213 216 207 201 203 206 204 201 202 207 209 208 207 207 210 214 217 218 220 220 221 222 223 223 224 226 228 227 225 226 226 227 227 227 226 225 223 223 224 223 220 218 220 222 223 227 231 233 234 232 228 224 224 225 227 228 229 231 235 239 244 249 248 247 248 239 227 229 229 223 220 219 219 221 222 222 223 225 227 227 226 225 225 226 228
208 212 216 212 206 206 210 212 208 204 205 207 209 211 210 209 213 217 220 221 222 221 222 223 224 224 224 226 226 225 226 226 227 229 231 230 227 225 226 227 226 223 221 222 223 224 225 227 230 232 232 229 227 227 228 229 229 228 229 233 237 241 244 243 242 241 232 221 223 229 227 223 221 223 225 223 222 223 227 231 232 230 229 228 229 230
210 212 217 216 209 206 210 216 216 209 207 208 212 217 217 214 213 215 218 221 223 224 224 224 225 225 224 224 225 226 227 227 226 228 231 232 230 228 228 228 227 225 223 222 223 225 226 227 228 230 230 229 228 228 228 228 229 229 229 233 236 234 231 231 232 232 232 231 233 234 232 227 225 227 228 226 226 227 230 234 235 234 233 231 230 231
212 212 216 219 216 209 208 215 219 215 212 213 215 218 223 223 220 219 219 219 221 224 225 226 227 227 226 226 226 227 229 229 227 225 228 231 232 232 231 230 228 226 225 225 225 226 226 227 228 229 230 230 229 229 230 230 232 231 230 232 235 232 227 227 229 234 238 240 239 237 236 235 233 233 232 230 231 232 234 235 236 236 235 234 233 232
215 215 216 220 221 216 209 210 214 212 209 212 215 217 222 226 226 225 224 221 221 223 225 227 228 230 230 230 230 231 232 232 231 229 229 232 235 236 236 235 232 231 231 231 230 229 228 228 228 229 229 230 230 229 230 231 234 234 232 233 236 235 230 226 228 233 238 240 240 239 238 237 237 238 239 237 236 237 238 239 239 240 239 239 238 236
217 219 219 220 224 223 214 207 206 207 207 209 212 215 220 226 229 229 228 226 224 224 226 227 228 230 231 232 232 232 233 234 235 236 236 237 240 241 239 236 235 235 237 238 237 234 231 229 228 229 229 230 230 230 230 231 233 233 232 232 234 236 232 227 228 232 237 240 243 244 242 241 240 241 243 243 241 243 244 242 242 242 242 243 243 241
219 221 223 225 227 229 225 214 206 204 205 207 210 213 217 222 226 228 229 228 226 225 227 228 229 229 229 230 232 232 233 236 238 239 240 241 241 238 235 234 235 236 238 240 240 237 233 230 229 229 230 230 231 231 231 232 234 234 233 233 233 233 232 231 235 241 244 246 247 245 244 244 245 245 246 247 245 245 247 248 246 245 245 245 244 243
225 224 225 228 231 233 235 232 222 213 206 204 206 211 214 217 221 223 226 229 229 228 227 227 228 228 228 229 231 232 234 236 238 239 240 241 239 236 236 238 241 242 243 244 244 242 237 234 231 230 230 231 232 232 232 233 235 235 235 234 234 233 233 235 239 245 246 246 244 243 245 248 249 247 247 248 247 247 249 252 252 251 250 248 246 245
234 232 229 230 232 234 239 242 241 236 226 213 208 209 210 213 216 217 220 226 229 230 229 229 228 229 230 230 230 231 233 235 237 239 242 244 244 244 245 246 247 249 251 251 250 247 243 240 236 233 232 232 233 235 235 235 236 236 236 235 235 234 234 234 237 240 241 239 241 246 250 253 252 249 247 248 249 250 251 252 251 251 250 249 248 248
235 238 237 236 234 235 238 242 245 247 245 237 232 229 225 221 220 219 220 222 225 227 229 229 230 232 232 232 232 232 234 236 238 241 243 246 248 250 250 249 249 251 252 250 248 245 242 239 237 235 234 233 234 236 237 238 238 238 237 237 236 236 236 236 237 238 237 237 242 248 252 253 253 251 250 250 251 253 254 254 253 251 250 248 247 247
235 238 240 241 240 239 239 240 242 246 249 249 249 250 249 246 243 241 237 232 229 230 231 230 231 233 234 235 235 235 237 239 240 241 241 241 244 245 246 246 245 245 245 245 243 241 237 234 232 232 232 233 234 235 237 239 240 240 240 239 239 239 239 240 240 240 239 239 242 246 248 250 251 252 252 252 253 254 255 256 255 254 252 249 247 246
235 238 240 242 243 243 242 242 242 243 245 248 250 252 254 254 252 250 249 246 242 241 240 236 235 235 236 237 236 236 238 239 237 235 234 234 235 238 241 241 239 237 236 237 237 236 234 232 230 229 229 231 233 234 235 237 240 241 242 242 242 243 243 244 244 244 243 242 243 244 246 248 249 251 252 253 253 254 255 256 256 256 255 253 250 247
237 238 240 241 242 243 244 244 244 243 244 245 247 248 249 249 249 249 250 249 246 244 242 241 239 238 238 238 237 235 235 235 233 230 228 228 231 235 238 239 239 237 234 232 231 232 232 232 231 231 230 230 232 233 234 235 237 239 241 243 243 244 245 246 247 247 246 246 245 246 247 248 249 251 252 252 253 254 255 254 254 254 255 256 253 250
249 246 244 243 243 243 244 244 244 244 244 244 245 246 246 247 248 248 248 246 245 243 242 242 241 239 238 238 238 237 236 238 240 240 233 226 227 231 232 233 234 234 231 227 227 229 231 233 234 234 234 234 234 234 234 234 235 237 239 241 242 243 244 245 246 247 248 248 248 248 248 249 250 251 252 252 253 253 253 253 253 253 254 256 256 254
260 256 253 251 249 247 246 246 245 245 244 244 244 244 244 245 245 245 245 244 244 242 240 239 239 240 240 239 239 240 240 242 244 244 240 236 235 234 232 231 232 233 233 231 231 232 233 235 236 236 236 236 236 235 235 235 235 236 237 238 240 242 243 243 245 246 247 248 249 249 250 250 251 252 253 254 254 253 253 253 254 254 255 256 256 256
276 269 263 259 255 253 252 250 248 247 246 245 244 244 244 243 243 243 243 243 243 242 241 239 238 239 240 241 241 241 243 246 249 249 248 248 248 244 241 239 236 235 235 235 235 235 236 236 237 237 238 238 238 238 237 236 236 236 236 237 238 239 241 242 243 244 246 247 248 249 251 251 252 252 253 254 255 255 255 255 255 255 256 257 257 257
286 282 277 272 267 263 259 256 254 253 251 249 248 246 245 244 243 242 241 241 241 241 241 240 238 237 238 239 239 239 239 242 247 250 250 250 249 246 243 242 241 238 236 235 235 234 234 235 236 237 237 237 238 238 238 238 237 236 236 237 237 238 239 241 242 244 245 246 247 248 249 251 252 252 253 254 255 256 257 257 257 257 256 257 257 257
290 286 282 279 275 271 267 263 259 256 254 252 251 249 247 246 245 244 243 242 241 240 240 240 239 238 238 239 239 237 233 230 232 239 243 245 245 243 241 241 241 239 237 237 237 238 238 238 238 237 236 236 236 236 237 238 239 238 238 238 238 239 239 240 242 243 244 245 246 247 248 249 250 252 253 254 254 255 256 257 257 257 257 257 256 256
293 289 285 281 279 276 272 269 265 261 257 254 252 251 249 247 247 247 246 244 243 242 241 240 239 238 239 240 240 238 234 230 231 236 240 241 241 240 239 239 239 238 238 237 238 239 240 239 238 237 237 236 235 236 237 238 239 240 240 240 240 240 240 240 241 242 243 245 246 246 247 248 249 250 251 252 253 254 255 255 256 257 257 257 257 256
292 290 287 285 282 279 276 273 270 266 263 259 255 252 250 249 249 249 249 248 247 245 243 242 241 240 239 240 240 239 238 237 238 242 245 246 242 240 239 238 237 236 236 236 237 237 237 236 236 236 237 237 237 237 237 238 239 240 241 241 242 241 241 241 241 241 242 243 245 245 246 247 248 249 249 250 251 252 253 254 255 255 256 256 257 256
291 289 287 285 284 283 280 276 273 269 265 263 260 256 253 251 250 250 249 249 249 248 246 245 243 242 241 241 240 240 240 240 242 244 246 245 243 241 240 238 237 236 236 236 236 236 235 235 235 236 237 238 238 239 239 239 240 241 242 243 243 243 243 243 242 242 242 242 243 244 245 246 246 247 248 248 249 250 250 251 252 253 254 255 256 257
Height
5847 5849 5852 5857 5862 5865 5869 5872 5874 5876 5876 5878 5879 5880 5880 5882 5883 5885 5886 5886 5887 5888 5889 5891 5892 5894 5895 5896 5896 5897 5899 5901 5904 5906 5908 5911 5913 5914 5916 5917 5917 5918 5919 5919 5920 5921 5923 5924 5925 5927 5928 5930 5931 5932 5933 5934 5936 5938 5939 5940 5941 5941 5942 5943 5944 5945 5945 5946 5946 5946 5946 5946 5947 5947 5948 5948 5948 5949 5949 5950 5950 5951 5951 5951 5951 5951
5844 5847 5852 5858 5862 5863 5866 5869 5870 5872 5873 5875 5877 5878 5880 5881 5883 5883 5884 5884 5885 5887 5888 5890 5891 5893 5895 5895 5895 5895 5897 5900 5903 5906 5908 5910 5912 5913 5915 5916 5917 5918 5918 5919 5920 5921 5923 5924 5925 5926 5928 5929 5930 5932 5933 5935 5936 5938 5939 5940 5941 5942 5943 5943 5944 5945 5946 5946 5947 5947 5947 5948 5948 5948 5949 5949 5949 5950 5950 5950 5951 5952 5952 5952 5952 5953
5841 5846 5852 5856 5858 5860 5863 5866 5867 5869 5871 5873 5874 5877 5879 5881 5882 5883 5883 5883 5885 5886 5888 5889 5890 5892 5893 5894 5894 5895 5896 5898 5901 5904 5906 5909 5911 5912 5913 5915 5917 5917 5918 5919 5920 5921 5922 5924 5925 5926 5927 5929 5930 5932 5933 5935 5937 5938 5939 5941 5942 5942 5943 5944 5944 5945 5946 5947 5947 5947 5948 5949 5949 5949 5949 5949 5950 5950 5951 5951 5952 5952 5953 5953 5953 5953
5841 5847 5851 5852 5855 5858 5861 5863 5865 5867 5870 5871 5872 5875 5878 5880 5881 5883 5884 5884 5885 5887 5888 5888 5889 5890 5892 5893 5893 5894 5895 5897 5900 5902 5905 5907 5910 5911 5912 5915 5916 5916 5917 5918 5919 5921 5922 5923 5925 5926 5927 5928 5930 5931 5933 5935 5936 5938 5939 5941 5941 5942 5943 5944 5944 5945 5946 5946 5947 5948 5948 5949 5949 5950 5950 5950 5950 5951 5951 5952 5952 5953 5953 5953 5953 5953
5841 5845 5847 5849 5852 5855 5858 5861 5863 5865 5868 5869 5870 5873 5877 5879 5880 5881 5882 5883 5884 5886 5888 5887 5887 5889 5891 5891 5892 5893 5895 5897 5899 5900 5903 5906 5907 5909 5911 5914 5916 5915 5915 5916 5918 5920 5921 5923 5924 5925 5926 5928 5929 5931 5933 5934 5936 5938 5939 5940 5941 5942 5943 5944 5944 5945 5945 5946 5947 5948 5948 5949 5949 5950 5950 5951 5951 5951 5951 5952 5952 5953 5953 5953 5953 5954
5838 5840 5842 5845 5848 5850 5854 5858 5861 5864 5867 5868 5869 5872 5876 5878 5878 5879 5880 5881 5883 5886 5886 5886 5887 5888 5890 5890 5891 5893 5894 5896 5897 5899 5902 5905 5906 5907 5910 5913 5915 5916 5915 5915 5916 5918 5920 5922 5923 5925 5926 5928 5929 5930 5932 5934 5936 5937 5939 5940 5941 5942 5943 5944 5944 5945 5946 5946 5947 5948 5949 5949 5950 5950 5950 5951 5951 5951 5951 5952 5952 5953 5953 5954 5954 5954
5834 5836 5839 5842 5845 5847 5850 5855 5859 5862 5864 5866 5868 5871 5874 5876 5877 5878 5880 5882 5884 5884 5884 5884 5886 5887 5888 5890 5891 5891 5892 5894 5895 5898 5900 5903 5905 5907 5910 5911 5914 5916 5916 5915 5916 5918 5919 5921 5923 5924 5926 5927 5928 5930 5932 5934 5936 5937 5938 5939 5940 5941 5943 5944 5944 5945 5946 5947 5947 5948 5949 5949 5950 5950 5950 5951 5951 5951 5951 5952 5952 5953 5953 5954 5954 5954
5831 5832 5836 5840 5842 5845 5848 5852 5857 5860 5863 5866 5869 5871 5873 5875 5877 5878 5880 5881 5882 5881 5882 5883 5885 5886 5887 5889 5890 5890 5891 5892 5893 5896 5899 5901 5903 5907 5909 5910 5912 5915 5916 5916 5916 5918 5919 5920 5922 5924 5925 5927 5928 5929 5931 5933 5935 5936 5938 5939 5940 5941 5942 5943 5945 5946 5946 5947 5948 5948 5949 5949 5950 5950 5950 5951 5951 5951 5952 5952 5952 5953 5953 5953 5954 5954
5827 5829 5833 5837 5840 5843 5848 5853 5856 5858 5862 5867 5869 5869 5872 5874 5876 5878 5879 5879 5879 5878 5881 5883 5885 5886 5886 5888 5889 5890 5890 5890 5892 5895 5898 5900 5903 5906 5909 5909 5911 5915 5917 5917 5917 5917 5918 5920 5922 5923 5925 5926 5928 5929 5930 5932 5933 5935 5937 5939 5940 5941 5942 5943 5944 5946 5947 5948 5948 5948 5949 5949 5950 5950 5950 5950 5951 5951 5951 5952 5952 5953 5953 5953 5954 5954
5822 5826 5829 5832 5836 5843 5849 5852 5853 5856 5862 5866 5866 5868 5870 5872 5873 5874 5875 5876 5876 5877 5880 5882 5884 5885 5886 5887 5888 5889 5890 5890 5891 5894 5897 5899 5902 5905 5908 5909 5911 5914 5916 5917 5918 5918 5917 5919 5920 5922 5924 5926 5927 5928 5930 5931 5933 5935 5936 5938 5939 5940 5941 5942 5944 5945 5947 5947 5948 5948 5949 5949 5950 5950 5950 5950 5951 5951 5951 5952 5952 5952 5953 5953 5954 5954
5819 5822 5825 5828 5834 5841 5846 5849 5851 5856 5861 5863 5863 5865 5867 5868 5869 5870 5871 5872 5873 5875 5878 5880 5882 5884 5885 5886 5887 5888 5889 5889 5891 5893 5895 5897 5900 5903 5906 5908 5910 5913 5915 5916 5917 5918 5918 5919 5920 5922 5923 5925 5927 5928 5929 5930 5932 5933 5935 5936 5937 5939 5940 5941 5943 5944 5946 5947 5947 5948 5949 5949 5950 5950 5950 5950 5951 5951 5951 5952 5952 5953 5953 5954 5954 5955
5817 5819 5822 5827 5833 5837 5841 5845 5849 5854 5857 5857 5859 5861 5863 5864 5865 5866 5868 5869 5870 5875 5878 5878 5880 5882 5884 5885 5886 5886 5887 5888 5890 5891 5893 5895 5899 5902 5905 5907 5909 5912 5914 5914 5915 5917 5918 5920 5921 5922 5923 5925 5926 5927 5928 5929 5930 5932 5933 5935 5936 5937 5939 5940 5942 5943 5944 5945 5946 5947 5948 5948 5949 5949 5950 5950 5950 5951 5951 5952 5952 5953 5953 5954 5954 5955
5815 5818 5821 5826 5830 5833 5837 5841 5846 5850 5851 5852 5855 5857 5858 5860 5861 5863 5865 5868 5871 5876 5877 5877 5878 5881 5883 5884 5884 5885 5886 5888 5889 5891 5892 5894 5897 5901 5904 5906 5908 5910 5912 5914 5914 5915 5917 5920 5921 5922 5923 5924 5926 5927 5927 5928 5929 5931 5932 5934 5935 5936 5937 5939 5940 5941 5942 5943 5944 5945 5946 5947 5947 5948 5949 5950 5950 5950 5951 5951 5952 5953 5953 5954 5954 5955
5814 5817 5820 5824 5827 5831 5834 5838 5842 5845 5847 5849 5852 5853 5854 5856 5858 5860 5863 5867 5872 5875 5875 5875 5876 5879 5881 5882 5883 5885 5886 5887 5888 5890 5892 5893 5895 5899 5902 5904 5906 5908 5910 5912 5912 5913 5915 5918 5920 5922 5923 5924 5925 5926 5926 5927 5928 5930 5931 5933 5934 5935 5936 5937 5938 5939 5941 5942 5942 5943 5944 5945 5946 5947 5948 5949 5949 5950 5950 5951 5951 5952 5953 5953 5954 5955
5811 5815 5819 5823 5826 5829 5833 5837 5841 5843 5846 5848 5850 5851 5853 5854 5857 5860 5863 5868 5872 5873 5873 5873 5874 5877 5880 5881 5883 5884 5885 5887 5888 5890 5892 5893 5894 5897 5900 5902 5904 5905 5907 5908 5909 5910 5912 5916 5919 5921 5922 5923 5923 5924 5926 5927 5928 5929 5930 5932 5933 5933 5934 5935 5936 5937 5938 5940 5941 5942 5943 5944 5945 5946 5947 5947 5948 5949 5949 5950 5951 5951 5952 5953 5954 5954
5809 5813 5817 5822 5825 5829 5833 5836 5839 5841 5845 5847 5848 5849 5851 5853 5857 5861 5864 5868 5870 5870 5870 5871 5873 5877 5879 5880 5881 5882 5883 5886 5888 5889 5892 5893 5894 5896 5898 5900 5901 5902 5903 5906 5909 5911 5913 5916 5919 5921 5922 5922 5923 5923 5925 5926 5927 5928 5929 5930 5931 5932 5933 5933 5934 5935 5937 5938 5939 5941 5942 5943 5944 5945 5946 5946 5947 5948 5948 5949 5949 5950 5951 5952 5953 5953
5807 5811 5815 5819 5825 5829 5832 5835 5837 5839 5842 5844 5846 5847 5848 5852 5856 5859 5861 5865 5866 5867 5868 5870 5873 5877 5877 5878 5880 5881 5882 5885 5886 5888 5890 5892 5894 5895 5895 5897 5898 5900 5902 5906 5910 5913 5915 5917 5919 5920 5921 5921 5922 5923 5923 5925 5926 5927 5928 5929 5930 5931 5932 5932 5933 5934 5935 5937 5938 5940 5941 5942 5943 5944 5944 5945 5946 5947 5947 5948 5948 5949 5950 5951 5952 5953
5805 5809 5813 5818 5823 5826 5828 5832 5835 5837 5839 5842 5845 5846 5847 5850 5853 5855 5858 5860 5861 5863 5865 5868 5872 5875 5875 5877 5879 5880 5883 5885 5886 5888 5889 5890 5892 5893 5894 5897 5899 5901 5903 5905 5908 5912 5915 5916 5918 5918 5919 5919 5921 5921 5922 5922 5923 5925 5926 5927 5929 5930 5931 5931 5932 5933 5935 5937 5938 5939 5940 5941 5941 5942 5943 5944 5945 5946 5946 5947 5948 5948 5949 5950 5951 5952
5804 5807 5811 5816 5820 5822 5825 5828 5831 5834 5837 5840 5843 5844 5846 5848 5851 5853 5854 5856 5858 5860 5863 5866 5870 5871 5873 5876 5879 5881 5883 5885 5887 5888 5889 5890 5892 5893 5896 5898 5899 5901 5902 5904 5906 5910 5913 5914 5914 5915 5916 5918 5919 5920 5920 5920 5921 5922 5924 5925 5927 5929 5930 5931 5932 5934 5936 5937 5938 5939 5939 5940 5940 5941 5942 5943 5944 5945 5946 5947 5948 5949 5949 5950 5951 5952
5803 5806 5810 5814 5817 5820 5823 5825 5828 5830 5834 5837 5840 5842 5845 5846 5849 5851 5853 5854 5856 5858 5861 5864 5867 5869 5871 5875 5878 5881 5882 5883 5885 5887 5889 5891 5892 5894 5896 5897 5898 5899 5900 5901 5903 5907 5909 5909 5910 5911 5914 5916 5917 5918 5918 5919 5920 5921 5922 5923 5925 5927 5929 5932 5934 5936 5937 5937 5938 5938 5939 5939 5940 5941 5942 5943 5945 5946 5947 5948 5949 5949 5950 5950 5951 5952
5802 5805 5809 5812 5815 5818 5821 5823 5825 5828 5831 5834 5837 5840 5842 5845 5847 5849 5851 5852 5853 5856 5859 5861 5865 5868 5871 5874 5877 5879 5881 5882 5884 5886 5888 5890 5891 5894 5895 5896 5897 5898 5898 5899 5902 5904 5906 5906 5908 5910 5912 5914 5915 5916 5918 5919 5919 5920 5922 5923 5924 5927 5929 5932 5934 5935 5935 5935 5935 5936 5937 5938 5939 5940 5941 5943 5945 5946 5947 5948 5948 5948 5949 5950 5950 5951
5801 5804 5808 5811 5813 5815 5818 5820 5823 5825 5828 5831 5834 5836 5839 5842 5844 5847 5848 5849 5851 5854 5856 5859 5863 5867 5870 5872 5875 5877 5879 5881 5883 5885 5886 5888 5890 5892 5894 5895 5896 5897 5897 5898 5900 5902 5903 5905 5906 5909 5911 5913 5914 5914 5915 5917 5919 5920 5922 5923 5925 5928 5929 5931 5933 5931 5930 5930 5932 5934 5936 5937 5937 5938 5939 5940 5942 5944 5945 5946 5946 5947 5947 5948 5949 5949
5799 5803 5806 5809 5811 5813 5816 5818 5821 5823 5825 5827 5830 5833 5836 5839 5841 5844 5845 5847 5849 5852 5854 5857 5860 5864 5867 5870 5873 5875 5877 5880 5882 5884 5885 5887 5889 5890 5892 5893 5895 5896 5897 5898 5899 5901 5901 5903 5905 5907 5909 5911 5912 5912 5913 5914 5918 5920 5920 5921 5924 5926 5927 5929 5930 5927 5926 5928 5931 5932 5934 5935 5936 5937 5937 5938 5939 5941 5943 5944 5945 5946 5946 5946 5947 5948
5797 5801 5805 5807 5809 5812 5814 5816 5818 5821 5823 5824 5827 5830 5834 5838 5840 5842 5843 5845 5848 5850 5853 5855 5857 5860 5863 5866 5870 5873 5875 5878 5880 5882 5883 5885 5887 5889 5890 5892 5893 5895 5895 5896 5898 5899 5900 5902 5904 5906 5908 5909 5909 5910 5911 5914 5917 5919 5918 5918 5921 5922 5924 5926 5926 5925 5925 5926 5929 5930 5932 5934 5935 5936 5936 5936 5937 5939 5941 5943 5944 5944 5945 5945 5945 5946
5796 5799 5802 5805 5808 5810 5812 5814 5816 5818 5820 5822 5825 5828 5832 5835 5838 5841 5842 5843 5846 5848 5851 5853 5855 5858 5861 5864 5867 5870 5872 5875 5877 5879 5881 5883 5885 5887 5889 5891 5892 5893 5894 5894 5896 5897 5898 5900 5902 5904 5906 5908 5908 5908 5911 5914 5917 5917 5915 5915 5918 5919 5921 5922 5922 5923 5923 5925 5926 5928 5930 5932 5933 5934 5934 5935 5936 5937 5939 5941 5942 5942 5943 5943 5944 5944
5795 5797 5800 5803 5804 5807 5809 5810 5812 5814 5816 5819 5823 5827 5830 5833 5836 5839 5840 5842 5844 5846 5848 5851 5854 5856 5859 5862 5865 5867 5869 5872 5874 5877 5879 5881 5883 5885 5887 5889 5891 5892 5892 5893 5894 5896 5897 5898 5900 5902 5904 5906 5906 5907 5910 5912 5914 5913 5912 5913 5916 5918 5918 5919 5919 5920 5921 5923 5924 5925 5927 5929 5931 5931 5932 5933 5934 5936 5937 5939 5940 5940 5941 5942 5943 5944
5794 5796 5798 5799 5801 5804 5806 5807 5808 5811 5814 5818 5821 5825 5828 5831 5834 5836 5838 5840 5843 5844 5846 5849 5852 5854 5857 5860 5863 5865 5867 5870 5872 5874 5876 5878 5880 5882 5884 5886 5888 5890 5891 5891 5893 5894 5895 5897 5898 5900 5902 5903 5904 5906 5908 5909 5910 5909 5910 5913 5915 5915 5916 5916 5917 5918 5918 5919 5920 5922 5924 5926 5928 5929 5930 5931 5932 5934 5935 5936 5938 5939 5940 5941 5941 5942
5792 5793 5795 5796 5798 5801 5803 5804 5807 5811 5814 5816 5820 5823 5826 5829 5831 5834 5836 5838 5841 5842 5845 5847 5850 5853 5856 5858 5861 5863 5865 5868 5870 5872 5874 5875 5876 5878 5880 5883 5885 5887 5888 5889 5890 5891 5893 5895 5896 5898 5899 5901 5902 5904 5906 5907 5907 5908 5910 5911 5911 5912 5913 5914 5914 5915 5915 5915 5916 5917 5919 5922 5924 5926 5928 5929 5930 5932 5933 5934 5936 5937 5938 5939 5940 5941
5790 5791 5792 5793 5796 5798 5800 5802 5806 5810 5812 5815 5819 5823 5825 5827 5829 5831 5833 5836 5838 5840 5842 5845 5848 5851 5853 5856 5858 5861 5863 5866 5868 5870 5871 5872 5873 5875 5878 5880 5883 5884 5886 5887 5887 5888 5890 5892 5894 5895 5897 5899 5900 5901 5903 5904 5905 5907 5909 5909 5909 5910 5911 5912 5912 5913 5914 5913 5913 5914 5916 5918 5921 5923 5925 5926 5928 5929 5930 5932 5933 5934 5935 5937 5938 5939
5788 5789 5790 5791 5793 5796 5798 5801 5804 5808 5811 5814 5818 5821 5823 5825 5826 5828 5831 5833 5835 5838 5840 5843 5846 5848 5851 5853 5856 5858 5860 5863 5865 5866 5868 5869 5871 5873 5875 5877 5880 5882 5883 5884 5885 5886 5887 5889 5890 5892 5894 5897 5898 5899 5901 5902 5903 5905 5906 5907 5908 5908 5909 5910 5911 5912 5913 5913 5914 5914 5915 5916 5918 5920 5922 5923 5925 5926 5927 5929 5930 5931 5932 5934 5936 5937
5787 5787 5788 5790 5792 5794 5796 5798 5801 5805 5808 5811 5815 5818 5820 5823 5824 5826 5828 5830 5833 5835 5838 5840 5843 5846 5848 5851 5854 5856 5858 5860 5863 5864 5865 5867 5869 5871 5872 5875 5877 5879 5880 5882 5883 5884 5885 5886 5887 5889 5891 5894 5896 5898 5899 5900 5902 5903 5904 5905 5906 5906 5907 5908 5909 5910 5911 5912 5913 5914 5915 5915 5916 5917 5918 5920 5922 5924 5925 5926 5928 5928 5930 5931 5933 5934
5785 5786 5787 5789 5790 5792 5795 5797 5799 5802 5805 5809 5812 5814 5816 5819 5821 5823 5825 5828 5830 5833 5836 5838 5841 5844 5847 5849 5851 5854 5856 5859 5861 5863 5864 5865 5866 5868 5870 5871 5873 5875 5877 5878 5880 5881 5882 5883 5885 5886 5889 5891 5893 5895 5897 5899 5900 5901 5902 5903 5904 5905 5906 5907 5908 5909 5910 5911 5912 5912 5913 5913 5914 5915 5916 5917 5919 5922 5923 5924 5926 5927 5928 5929 5931 5932
5783 5784 5786 5787 5789 5790 5793 5795 5798 5801 5804 5807 5809 5812 5814 5815 5817 5819 5822 5825 5827 5830 5833 5836 5838 5841 5844 5846 5849 5851 5853 5856 5859 5860 5861 5862 5863 5865 5866 5868 5870 5872 5873 5875 5876 5878 5879 5880 5882 5883 5885 5887 5890 5891 5893 5896 5898 5899 5900 5901 5902 5903 5905 5907 5908 5909 5910 5910 5911 5910 5910 5911 5912 5913 5914 5915 5917 5919 5921 5922 5923 5925 5927 5928 5929 5930
5781 5783 5784 5786 5788 5790 5792 5794 5796 5798 5801 5803 5806 5809 5812 5812 5813 5816 5819 5821 5824 5827 5831 5833 5836 5838 5841 5844 5847 5849 5851 5853 5856 5857 5858 5858 5860 5862 5864 5866 5868 5869 5871 5872 5874 5875 5877 5878 5879 5880 5882 5884 5886 5888 5890 5892 5894 5896 5897 5899 5899 5900 5902 5904 5905 5906 5907 5907 5908 5909 5909 5910 5910 5911 5912 5913 5915 5917 5919 5919 5920 5922 5924 5926 5927 5927
5779 5781 5783 5784 5787 5789 5790 5792 5793 5794 5796 5799 5803 5807 5808 5809 5810 5812 5816 5819 5821 5824 5828 5831 5833 5836 5839 5842 5844 5846 5848 5850 5852 5854 5855 5855 5857 5859 5862 5863 5865 5867 5868 5869 5871 5873 5874 5876 5876 5877 5879 5881 5883 5885 5887 5889 5890 5891 5894 5895 5896 5897 5899 5900 5901 5902 5903 5904 5905 5907 5908 5908 5909 5909 5910 5912 5913 5915 5916 5917 5918 5919 5921 5923 5924 5924
5776 5779 5781 5782 5784 5786 5788 5788 5789 5791 5794 5798 5801 5803 5805 5806 5808 5810 5813 5816 5818 5822 5825 5828 5830 5833 5835 5838 5841 5843 5845 5847 5849 5850 5852 5853 5855 5857 5859 5861 5863 5864 5865 5866 5868 5870 5871 5873 5873 5874 5876 5877 5880 5882 5884 5885 5886 5888 5891 5892 5893 5894 5896 5897 5898 5900 5901 5902 5903 5904 5905 5906 5907 5908 5909 5910 5912 5913 5914 5916 5917 5917 5918 5919 5920 5921
5775 5777 5779 5781 5782 5784 5785 5786 5787 5789 5792 5795 5797 5798 5800 5802 5804 5807 5809 5811 5814 5818 5821 5824 5827 5829 5831 5834 5837 5839 5841 5843 5845 5847 5848 5850 5852 5854 5856 5858 5860 5861 5862 5864 5865 5866 5868 5869 5870 5871 5873 5874 5876 5878 5880 5882 5884 5886 5888 5890 5891 5892 5894 5895 5896 5897 5898 5899 5901 5902 5903 5904 5905 5907 5908 5909 5910 5911 5912 5913 5914 5915 5916 5916 5917 5918
5773 5775 5777 5779 5780 5782 5782 5783 5785 5787 5788 5791 5793 5795 5796 5798 5800 5802 5805 5807 5810 5814 5817 5820 5823 5825 5828 5831 5833 5836 5837 5839 5841 5844 5845 5847 5849 5851 5853 5855 5856 5857 5859 5861 5862 5863 5864 5865 5866 5868 5870 5871 5872 5874 5876 5878 5880 5882 5885 5887 5888 5890 5891 5892 5893 5894 5895 5896 5897 5899 5901 5902 5903 5904 5905 5906 5907 5908 5909 5911 5912 5913 5914 5914 5914 5914
5772 5773 5775 5777 5779 5780 5780 5781 5783 5784 5786 5788 5790 5791 5793 5794 5795 5798 5802 5803 5807 5810 5814 5817 5819 5821 5824 5827 5829 5831 5833 5834 5837 5840 5841 5842 5844 5846 5849 5850 5852 5853 5855 5856 5857 5859 5860 5862 5863 5865 5866 5868 5869 5870 5872 5874 5876 5878 5880 5882 5884 5886 5888 5889 5890 5891 5892 5893 5894 5895 5897 5899 5900 5901 5903 5903 5904 5905 5907 5908 5909 5911 5912 5912 5912 5912
5771 5772 5773 5775 5776 5778 5779 5780 5780 5781 5783 5785 5786 5787 5789 5791 5793 5796 5799 5800 5803 5806 5809 5812 5815 5817 5819 5821 5824 5826 5828 5830 5832 5833 5834 5836 5838 5840 5842 5844 5846 5848 5849 5851 5853 5854 5856 5858 5859 5861 5863 5864 5865 5866 5867 5869 5871 5873 5876 5878 5880 5882 5884 5885 5887 5888 5890 5891 5891 5892 5893 5895 5896 5898 5899 5900 5901 5902 5903 5905 5906 5908 5909 5910 5910 5910
5770 5771 5772 5773 5774 5775 5777 5778 5778 5779 5780 5781 5782 5783 5785 5787 5790 5793 5794 5797 5800 5802 5804 5807 5809 5810 5812 5815 5818 5821 5823 5825 5826 5827 5827 5829 5831 5833 5834 5837 5840 5842 5844 5846 5848 5850 5851 5853 5855 5856 5858 5860 5862 5863 5864 5865 5866 5868 5870 5873 5875 5877 5879 5881 5883 5884 5886 5887 5888 5889 5890 5891 5892 5893 5895 5896 5897 5898 5899 5901 5902 5903 5905 5906 5907 5908
5769 5769 5770 5771 5772 5773 5774 5775 5776 5777 5777 5778 5779 5780 5782 5784 5785 5786 5788 5793 5796 5798 5799 5802 5804 5805 5808 5810 5813 5816 5819 5819 5819 5819 5820 5822 5824 5826 5828 5830 5833 5836 5839 5841 5843 5844 5846 5847 5849 5851 5853 5855 5857 5859 5860 5861 5862 5863 5865 5868 5870 5872 5874 5876 5877 5879 5881 5882 5884 5885 5886 5888 5889 5890 5891 5892 5893 5894 5895 5896 5897 5899 5900 5901 5902 5903
5768 5768 5769 5769 5770 5771 5771 5772 5773 5773 5774 5775 5776 5777 5779 5780 5780 5782 5785 5788 5790 5792 5794 5797 5799 5801 5803 5805 5808 5811 5813 5813 5813 5813 5813 5815 5817 5820 5823 5824 5826 5830 5833 5835 5837 5838 5840 5841 5843 5845 5847 5849 5851 5853 5855 5857 5858 5859 5861 5863 5865 5867 5869 5870 5872 5873 5875 5877 5879 5880 5882 5883 5884 5885 5886 5887 5888 5890 5891 5892 5893 5894 5895 5896 5897 5899
5766 5767 5767 5767 5768 5768 5768 5769 5770 5770 5771 5772 5773 5774 5775 5776 5777 5779 5780 5782 5784 5787 5789 5792 5793 5795 5797 5800 5802 5805 5807 5808 5809 5810 5810 5810 5812 5815 5817 5818 5820 5823 5826 5829 5830 5832 5834 5836 5837 5839 5841 5843 5845 5847 5849 5851 5853 5855 5857 5858 5860 5862 5863 5865 5866 5868 5869 5871 5873 5875 5876 5878 5879 5880 5881 5882 5883 5885 5886 5887 5889 5890 5891 5892 5893 5894
5765 5765 5765 5765 5765 5766 5766 5766 5767 5767 5768 5768 5769 5770 5772 5773 5774 5775 5775 5776 5779 5781 5784 5786 5788 5789 5792 5794 5796 5799 5800 5802 5804 5806 5807 5807 5809 5811 5812 5813 5816 5818 5820 5822 5824 5826 5828 5830 5831 5833 5835 5836 5838 5840 5842 5845 5847 5850 5852 5853 5854 5856 5857 5859 5861 5862 5864 5865 5867 5869 5870 5872 5873 5874 5875 5877 5878 5880 5881 5883 5884 5885 5886 5888 5888 5889
5762 5763 5763 5763 5763 5763 5763 5763 5763 5763 5764 5765 5766 5767 5768 5769 5769 5770 5771 5772 5773 5775 5777 5780 5782 5784 5786 5788 5790 5792 5795 5797 5798 5800 5800 5801 5804 5807 5808 5809 5811 5812 5813 5814 5816 5819 5821 5823 5825 5827 5829 5830 5832 5834 5836 5838 5840 5843 5845 5847 5849 5850 5851 5853 5855 5856 5858 5859 5861 5863 5864 5865 5867 5868 5870 5871 5873 5874 5876 5877 5879 5880 5881 5882 5883 5884
5760 5760 5760 5760 5760 5760 5760 5760 5760 5760 5760 5761 5762 5763 5764 5765 5765 5765 5766 5767 5768 5769 5771 5774 5776 5778 5780 5781 5783 5785 5789 5792 5794 5794 5792 5792 5794 5798 5801 5802 5804 5806 5806 5808 5810 5811 5814 5816 5818 5820 5822 5824 5826 5828 5829 5831 5833 5836 5838 5840 5842 5844 5846 5847 5849 5850 5852 5854 5855 5857 5858 5859 5861 5862 5864 5865 5867 5868 5870 5871 5873 5874 5876 5877 5878 5879
5757 5757 5756 5756 5756 5756 5756 5756 5756 5756 5756 5757 5757 5758 5759 5760 5760 5760 5761 5762 5763 5764 5765 5767 5770 5772 5772 5774 5776 5778 5782 5785 5785 5786 5786 5784 5784 5788 5792 5794 5796 5798 5800 5802 5804 5805 5807 5809 5812 5814 5816 5817 5819 5821 5822 5824 5827 5829 5831 5834 5836 5838 5840 5841 5843 5844 5846 5847 5849 5851 5852 5854 5855 5857 5858 5859 5861 5862 5864 5865 5867 5868 5870 5871 5873 5874
5753 5753 5753 5752 5752 5752 5751 5751 5751 5751 5751 5752 5752 5753 5754 5755 5755 5755 5756 5757 5757 5758 5759 5761 5763 5764 5766 5768 5769 5772 5775 5776 5776 5777 5778 5777 5777 5780 5783 5785 5788 5791 5794 5796 5798 5799 5801 5803 5805 5807 5809 5810 5812 5814 5815 5817 5819 5822 5824 5827 5829 5831 5833 5835 5837 5838 5839 5841 5843 5844 5846 5848 5849 5851 5852 5854 5855 5856 5858 5859 5861 5862 5863 5865 5866 5868
5749 5749 5748 5748 5748 5748 5747 5746 5745 5745 5745 5745 5746 5747 5748 5749 5750 5750 5751 5751 5752 5752 5754 5755 5756 5758 5759 5761 5762 5764 5767 5768 5769 5769 5770 5771 5773 5774 5776 5778 5781 5784 5786 5789 5791 5793 5795 5796 5798 5799 5801 5803 5805 5807 5808 5810 5812 5814 5817 5820 5822 5824 5826 5828 5830 5831 5833 5834 5836 5837 5839 5841 5843 5845 5846 5847 5849 5850 5851 5853 5854 5855 5857 5858 5859 5861
5746 5744 5744 5743 5743 5743 5742 5741 5741 5740 5739 5739 5740 5741 5742 5743 5744 5745 5745 5746 5746 5746 5747 5748 5750 5751 5752 5754 5755 5757 5759 5760 5762 5763 5764 5765 5767 5768 5770 5772 5775 5777 5780 5782 5785 5786 5788 5789 5790 5792 5793 5795 5797 5799 5802 5804 5806 5808 5810 5812 5815 5817 5819 5820 5822 5824 5826 5828 5829 5831 5833 5835 5836 5838 5839 5841 5842 5844 5845 5846 5847 5849 5850 5851 5852 5853